Погода в Симферополе

Погода в Симферополе : погода сейчас, прогноз погоды и архив. Всё, что Вы хотите узнать о погоде в Симферополе!

Хотите узнать прогноз погоды в Симферополе? Тогда Вам сюда: Погода в Симферополе

Поиск расширенной информации на нашем сайте:

Полезная информация:

Другие новости

Новости СМИ2

Главная страница сайта

Новости сайта

03.07.2017

Напоминаем, что на нашем специализированном сайте Метеоцентр.Азия вы можете получить высокодетализированные автоматические прогнозы погоды по пунктам России, СНГ и мира в авиационном формате (включающие направление и скорость ветра, видимость, явления погоды, количество и форму облачности, нижнюю и верхнюю границу облачности).

Рекомендуем:

Погода в Симферополе - сегодня

Время (UTC), дата Ветер
(°,м/с) 
Видим.   Явления Облачность Т
(°С)
Тd
(°С)
f(%) Тe
(°С)
Pmin
(гПа)
dP
(гПа)
Po
(мм)
O2
(г/м3)
Тmin Tmax R s Состояние
почвы
00 22.05.19 200 (Ю) 10 км  гроза без осадков{ливн. осадки}  10/4 840 м кучево-дожд., средняя 
[Cb calv|Ac und]
+15.4 +14.8 96 +25  1013.3  1.1  744  281           
03 22.05.19 160 (Ю) 10 км  {гроза, ливн. осадки}  9/1 1000 м кучево-дожд., средняя 
[Cb calv|Ac trans]
+15.9 +13.2 84 +22  1010.8  -2.4  742  280  +14.2         
06 22.05.19 230 (ЮЗ) 10 км  {гроза, ливн. осадки}  5/0 средняя 
[Ac trans]
+18.1 +13.4 74 +24  1012.2  1.5  743  278  +14.2    0.4     
09 22.05.19 240 (ЮЗ) 7-12{12}  10 км    6/6 800 м 
[Cu hum]
+19.9 +13.8 68 +27  1012.4  0.3  744  276           
12 22.05.19 240 (ЮЗ) 7{12}  10 км    3/3 600 м кучево-дожд. 
[Cb calv]
+21.3 +11.1 52 +24  1012.6  0.3  744  276           
15 22.05.19 230 (ЮЗ) 6{11}  10 км    8/1 1500 м средняя 
[Sc diur, vesp|Ac trans]
+20.2 +9.7 51 +21  1012.2  -0.5  743  277           
18 22.05.19 200 (Ю) 10 км    1/0 средняя 
[Ac trans]
+14.9 +10.5 75 +17  1013  0.4  744  282    +21.7       
21 22.05.19 180 (Ю) 10 км    ясно 
+13.2 +9.3 77 +12  1013.1  744  284           
00 23.05.19 180 (Ю) 10 км    3/0 верхняя 
[Ci fib]
+13 +8.3 73 +13  1012.1  -1  743  284           
03 23.05.19 190 (Ю) 10 км    8/0 средняя 
[Ac trans]
+14.3 +8.3 67 +14  1012.1  0.1  743  283  +12.2         
06 23.05.19 170 (Ю) 10 км  в посл. час ливневой дождь  9/4 600 м кучево-дожд., средняя 
[Cb calv|Ac lent]
+16.7 +12.5 76 +22  1011.3  -0.6  743  280  +12.2    0.3     
09 23.05.19 250 (З) 7-10  10 км    4/4 1200 м 
[Cu med, cong]
+23.4 +8.7 39 +23  1010.5  -0.3  742  274           
12 23.05.19 250 (З) 8-12{12}  10 км    3/3 1000 м кучево-дожд. 
[Cb calv]
+23.9 +8.7 38 +24  1010.3  -0.2  742  274           
15 23.05.19 240 (ЮЗ) 6{12}  10 км    1/1 1500 м 
[Sc]
+22.3 +10.5 47 +24  1009.7  -0.7  742  274      0.3     
18 23.05.19 230 (ЮЗ) 10 км    ясно 
+15.5 +12.3 81 +20  1010.6  0.4  742  281    +24.6       
21 23.05.19 180 (Ю) 10 км    ясно 
+13 +9.6 80 +14  1011.2  0.4  742  284           
00 24.05.19 170 (Ю) 10 км    ясно 
+12.9 +9 77 +13  1010.9  -0.3  742  284           
03 24.05.19 150 (ЮВ) 10 км    ясно 
+13.9 +8.9 72 +14  1010  -0.8  741  283  +11.9         
06 24.05.19 080 (В) 10 км    4/0 верхняя 
[Ci fib]
+21.7 +9.6 46 +23  1008.9  -0.5  741  275  +11.9         
09 24.05.19 130 (ЮВ) 10 км    10/1 1500 м верхняя 
[Cu hum|Ci fib]
+25.5 +9.8 37 +27  1008  -0.6  741  271           
12 24.05.19 260 (З) 10 км    10/4 1200 м кучево-дожд., верхняя 
[Cb calv|Ci fib]
+22.9 +13.1 54 +29  1007.8  -0.4  740  273           
15 24.05.19 260 (З) 10 км    10/4 1200 м кучево-дожд., средняя 
[Cb calv|Ac und]
+19.6 +12.4 63 +25  1008.1  0.1  740  276           
18 24.05.19 270 (З) 10 км  {ливн. осадки}  10/4 1000 м кучево-дожд., средняя 
[Cb calv|Ac lent]
+16.4 +15.6 95 +27  1009  0.6  741  278    +25.9     
21 24.05.19 170 (Ю) 5000 м  дымка{гроза}  6/3 1000 м кучево-дожд., средняя 
[Cb calv|Ac trans]
+15.1 +14.6 97 +24  1008.8  -0.3  741  280           
00 25.05.19 120 (ЮВ) 10 км  {гроза}  8/1 1000 м кучево-дожд., средняя 
[Cb calv|Ac trans]
+15.2 +12.9 86 +23  1007.7  -1  740  280           
Время (UTC), дата Ветер
(°,м/с) 
Видим.   Явления Облачность Т
(°С)
Тd
(°С)
f(%) Тe
(°С)
Pmin
(гПа)
dP
(гПа)
Po
(мм)
O2
(г/м3)
Тmin Tmax R s Состояние
почвы

Для получения пояснительной информации подведите курсор к названию столбца.

ПОГОДА в Симферополе - архив

Всё, что Вы хотите узнать о погоде в Симферополе - удобно и подробно!

Выберите нужную дату (начиная с 1 января 2018* года) и нажмите кнопку "Найти".
Будут отображены архивные сводки погоды по пункту Симферополь, начиная с указанной даты.


Отображать данные в формате CSV (для использования в таблицах Excel)


Внимание! Наш архив погоды предназначен исключительно для личного некоммерческого использования в познавательных целях. Если Вам необходимы официальные справки о состоянии погоды (для производственных, юридических, коммерческих и т.п. целей), обращайтесь в органы Росгидромета.

*Примечание: данная дата относится к архиву по метеостанциям СССР (Россия, СНГ, Балтия).
Архив по метеостанциям Зарубежной Европы и Азии (кроме Китая) хранится 10 дней, по другим регионам земного шара (Китай, Африка, Америка, Австралия, Океания) - 1 день.

Симферополь - район местоположения метеостанции


Название, широта, долгота, высота метеостанции:
Симферополь 44.7°ш. 34.1°д. 181 м над ур. моря [Российская Федерация]

Дополнительная информация

В oтличие oт бoльшинства пoгoдных сайтoв мы публикуем пoдрoбную метеoинфoрмацию в детальнoм прoфессиoнальнoм фoрмате.

Характеристики температуры и влажнoсти вoздуха измеряются на высoте 2 м в тени вдали oт зданий и деревьев.
Скoрoсть ветра измеряется на высoте 10 м (на урoвне рoста челoвека скoрoсть ветра ниже в 1.5-2 раза). Если метеoстанция нахoдится в гoрoде или в лесу, тo скoрoсть ветра занижена на 2-4 м/с пo сравнению с oткрытым местoм. Скoрoсть ветра над акватoриями крупных рек и oзёр, а также на вершинах хoлмoв на 2-5 м/с выше, чем в oбычных услoвиях.
Атмoсфернoе давление в разных тoчках местнoсти мoжет значительнo oтличаться oт давления на метеoстанции, в зависимoсти oт услoвий рельефа (при пoдъёме на 10 м давление пoнижается примернo на 1 мм рт.ст.).